Date,TemperatureHighF,TemperatureAvgF,TemperatureLowF,DewpointHighF,DewpointAvgF,DewpointLowF,HumidityHigh,HumidityAvg,HumidityLow,PressureMaxIn,PressureMinIn,WindSpeedMaxMPH,WindSpeedAvgMPH,GustSpeedMaxMPH,PrecipitationSumIn
2013-1-1,82.0,69.7,57.0,56.7,49.5,44.2,65,49,35,29.73,29.55,26,12,26,0.00
2013-1-2,82.0,69.7,57.0,65.8,56.1,48.8,97,64,42,29.59,29.22,28,8,28,0.36
2013-1-3,71.0,57.1,45.0,55.9,45.9,35.0,96,69,34,29.76,29.26,21,6,21,0.01
2013-1-4,73.0,55.7,40.0,52.2,44.4,37.6,93,68,29,29.96,29.76,16,3,16,0.00
2013-1-5,76.0,62.5,46.0,60.6,52.4,42.1,93,71,54,29.98,29.88,14,4,14,0.00
2013-1-6,79.0,64.2,55.0,62.2,56.5,50.3,98,78,51,29.99,29.81,21,3,21,0.00
2013-1-7,72.0,57.7,48.0,60.7,52.6,46.6,100,84,63,29.85,29.31,14,3,14,0.02
2013-1-8,72.0,57.6,48.0,54.5,50.3,46.8,97,79,48,29.59,29.33,18,4,18,0.00
2013-1-9,93.0,70.5,51.0,59.6,51.8,43.7,94,55,28,29.59,29.35,23,9,23,0.00
2013-1-10,83.0,74.3,67.0,65.9,50.8,41.2,93,46,25,29.69,29.25,32,14,32,0.06
2013-1-11,86.0,68.6,55.0,58.2,48.6,40.7,88,51,23,29.94,29.69,24,7,24,0.00
2013-1-12,95.0,71.3,51.0,55.3,49.3,39.3,94,54,16,29.93,29.67,24,4,24,0.00
2013-1-13,84.0,71.7,55.0,66.9,56.9,49.9,92,62,40,29.73,29.37,25,7,25,0.00
2013-1-14,64.0,60.4,56.0,56.0,53.1,49.9,88,77,67,29.62,29.53,13,2,13,0.00
2013-1-15,59.0,56.6,54.0,58.7,55.5,52.9,99,96,88,29.78,29.59,12,2,12,1.50
2013-1-16,66.0,57.9,50.0,55.9,53.1,49.2,100,85,64,29.78,29.48,12,3,12,0.00
2013-1-17,58.0,51.9,45.0,54.3,50.1,43.1,99,94,81,29.63,29.38,22,4,22,0.50
2013-1-18,67.0,53.3,40.0,51.3,44.6,38.7,99,75,44,29.76,29.63,18,4,16,0.00
2013-1-19,88.0,65.5,51.0,63.1,52.5,44.0,87,66,38,29.73,29.39,27,8,27,0.00
2013-1-20,74.0,61.1,45.0,62.2,54.0,43.4,99,78,59,29.81,29.59,16,4,16,0.00
2013-1-21,68.0,58.9,50.0,57.1,52.8,48.3,95,81,58,30.14,29.81,16,5,16,0.00
2013-1-22,70.0,61.2,52.0,62.9,56.9,50.0,97,86,73,30.16,30.05,16,4,16,0.00
2013-1-23,91.0,71.3,52.0,61.9,55.9,50.8,100,65,31,30.05,29.93,25,5,25,0.00
2013-1-24,65.0,59.9,55.0,57.8,52.5,45.6,91,77,53,30.54,30.01,18,3,18,0.00
2013-1-25,68.0,58.7,47.0,57.0,51.8,45.5,99,79,63,30.56,30.45,21,6,21,0.00
2013-1-26,72.0,61.1,52.0,58.6,53.8,48.3,92,78,59,30.50,30.42,13,5,13,0.00
2013-1-27,73.0,60.8,50.0,62.9,56.3,48.3,100,86,66,30.56,30.47,13,3,13,0.00
2013-1-28,73.0,62.3,56.0,63.5,58.8,54.9,98,89,68,30.57,30.38,14,2,14,0.00
2013-1-29,73.0,64.3,60.0,63.8,60.0,57.4,95,86,71,30.39,30.24,12,2,12,0.00
2013-1-30,72.0,64.7,57.0,65.1,60.8,55.6,95,88,76,30.28,30.09,13,2,13,0.00
2013-1-31,87.0,67.3,53.0,61.0,55.0,38.9,100,72,20,30.13,30.06,15,3,15,0.00
2013-2-1,71.0,64.9,58.6,64.9,61.2,54.4,98,88,76,30.11,29.86,10,2,10,0.00
2013-2-2,83.0,64.6,54.0,67.6,60.4,52.9,100,88,53,29.88,29.73,13,3,13,0.00
2013-2-3,80.0,66.3,60.0,61.5,58.1,54.2,97,77,47,29.94,29.76,16,5,16,0.00
2013-2-4,69.0,62.2,51.0,68.1,60.6,49.9,98,95,87,29.81,29.44,20,3,20,0.39
2013-2-5,64.0,53.0,46.0,49.6,46.6,43.2,97,80,49,30.24,29.78,20,6,20,0.22
2013-2-6,66.0,57.5,51.0,55.2,50.2,46.7,88,77,61,30.33,30.20,12,2,12,0.00
2013-2-7,66.0,57.2,43.0,55.8,50.9,41.4,99,80,64,30.34,30.28,18,4,18,0.00
2013-2-8,69.0,58.8,46.0,61.9,55.1,44.9,100,88,73,30.34,30.14,15,3,15,0.00
2013-2-9,79.0,63.1,54.0,64.9,58.3,52.3,98,86,51,30.15,30.06,10,2,10,0.00
2013-2-10,73.0,62.5,56.0,64.6,59.8,55.2,100,91,71,30.10,29.88,12,2,12,0.00
2013-2-11,87.0,66.8,58.0,67.8,58.8,51.1,98,78,51,29.98,29.75,20,2,20,0.00
2013-2-12,67.0,61.0,54.0,59.6,56.3,50.8,95,85,74,29.98,29.75,14,3,14,0.00
2013-2-13,64.0,57.6,51.0,59.0,53.0,45.7,100,85,68,29.97,29.72,17,2,17,0.02
2013-2-14,80.0,60.2,42.0,56.3,47.5,40.9,99,68,35,29.97,29.82,17,2,17,0.00
2013-2-15,68.0,60.5,52.0,58.2,54.7,49.0,97,82,65,30.04,29.89,17,5,17,0.00
2013-2-16,79.0,62.7,50.0,60.2,55.0,48.9,99,78,45,30.01,29.89,12,2,12,0.00
2013-2-17,66.0,60.0,55.0,58.4,55.1,52.1,92,84,71,30.29,30.01,12,3,12,0.00
2013-2-18,69.0,57.6,45.0,60.0,53.3,43.9,99,86,69,30.34,30.27,14,2,14,0.00
2013-2-19,72.0,59.2,46.0,60.7,54.3,45.2,100,85,60,30.33,30.16,16,3,16,0.00
2013-2-20,77.0,62.7,54.0,62.0,56.6,52.3,99,82,55,30.18,30.08,14,3,14,0.00
2013-2-21,77.0,58.6,47.0,61.1,53.2,46.2,100,84,47,30.30,30.02,18,3,18,0.00
2013-2-22,67.0,56.6,47.0,54.8,50.6,43.8,93,81,59,30.34,30.25,12,2,12,0.00
2013-2-23,70.0,54.4,43.0,55.5,48.7,41.2,100,83,52,30.43,30.31,13,2,13,0.00
2013-2-24,69.0,55.9,45.0,58.0,51.0,43.9,99,85,61,30.52,30.42,15,2,15,0.00
2013-2-25,68.0,60.1,55.0,58.8,55.5,52.4,94,85,71,30.52,30.39,20,4,20,0.00
2013-2-26,71.0,59.5,51.0,62.5,56.0,49.3,99,89,72,30.40,30.27,12,2,12,0.00
2013-2-27,72.0,61.9,55.0,61.9,58.7,53.9,99,90,69,30.31,30.12,13,2,13,0.00
2013-2-28,73.0,61.9,52.0,64.8,58.1,51.2,100,88,69,30.12,29.80,14,2,14,0.00
2013-3-1,79.0,64.4,54.0,63.4,57.8,52.9,99,81,50,30.00,29.83,16,3,16,0.00
2013-3-2,70.0,61.4,56.0,59.6,56.4,53.1,95,84,68,29.99,29.76,14,2,14,0.01
2013-3-3,64.0,58.9,55.0,57.6,53.7,50.4,98,84,63,29.92,29.73,12,3,12,0.00
2013-3-4,71.0,56.6,46.0,57.1,50.2,44.6,100,81,52,30.00,29.58,13,3,13,0.01
2013-3-5,69.0,57.4,47.0,56.1,50.2,45.4,98,79,56,30.05,29.91,14,3,14,0.00
2013-3-6,85.0,59.6,46.0,59.7,49.3,43.2,94,73,26,30.16,29.80,16,2,16,0.00
2013-3-7,66.0,57.3,52.0,57.4,53.5,50.0,98,88,67,30.18,30.05,18,4,18,0.01
2013-3-8,77.0,60.6,47.0,61.6,53.8,46.2,100,81,49,30.26,30.07,13,2,13,0.00
2013-3-9,64.0,60.5,57.0,58.4,56.1,54.2,93,85,73,30.31,30.16,14,4,14,0.00
2013-3-10,68.0,59.2,50.0,61.0,56.7,48.6,99,92,73,30.26,30.14,12,2,12,0.00
2013-3-11,72.0,59.3,50.0,61.2,53.5,48.9,100,83,50,30.33,30.10,17,2,17,0.00
2013-3-12,63.0,58.5,55.0,54.9,52.8,51.2,90,81,72,30.32,30.10,16,4,16,0.00
2013-3-13,69.0,59.7,50.0,56.7,53.3,48.1,98,80,63,30.10,29.99,12,2,12,0.00
2013-3-14,73.0,58.4,44.0,62.2,54.2,43.2,100,87,64,30.02,29.82,13,2,13,0.00
2013-3-15,80.0,64.5,52.0,63.9,57.6,51.2,98,81,47,30.08,29.86,10,1,10,0.00
2013-3-16,71.0,61.7,57.0,60.3,56.5,54.2,95,84,64,30.09,29.84,10,2,10,0.00
2013-3-17,71.0,60.6,55.0,63.1,58.0,53.9,99,92,69,29.84,29.39,13,2,13,0.09
2013-3-18,62.0,57.3,53.0,62.0,56.7,52.5,100,98,95,29.73,29.39,10,1,10,0.80
2013-3-19,57.0,51.8,47.0,52.7,49.9,46.5,99,93,80,30.19,29.73,10,3,10,0.07
2013-3-20,65.0,52.7,43.0,51.9,46.9,41.7,99,83,57,30.39,30.20,12,2,12,0.00
2013-3-21,64.0,52.8,42.0,53.4,47.7,40.9,99,84,63,30.48,30.38,16,3,16,0.00
2013-3-22,67.0,54.1,40.0,58.3,50.0,38.7,100,87,70,30.47,30.32,14,2,14,0.00
2013-3-23,73.0,56.8,41.0,60.7,48.6,39.5,100,77,43,30.34,30.17,12,2,12,0.00
2013-3-24,77.0,59.6,46.0,59.6,49.0,44.4,99,72,37,30.18,30.10,16,2,16,0.00
2013-3-25,85.0,66.3,51.0,57.3,51.8,47.3,94,63,36,30.11,29.92,21,4,21,0.00
2013-3-26,67.0,60.5,53.0,57.5,54.6,49.9,92,81,64,30.32,30.06,13,3,13,0.00
2013-3-27,71.0,57.2,50.0,61.5,54.3,48.6,100,91,67,30.37,30.27,9,2,9,0.00
2013-3-28,65.0,57.9,51.0,59.7,55.9,49.6,98,93,80,30.34,30.13,13,2,13,0.00
2013-3-29,83.0,64.6,51.0,60.7,53.4,47.5,100,73,33,30.13,29.81,24,6,24,0.00
2013-3-30,77.0,61.5,46.0,57.5,50.8,43.5,97,70,45,29.89,29.80,12,2,12,0.00
2013-3-31,84.0,65.8,52.0,57.9,52.4,47.3,95,65,36,29.82,29.51,22,5,22,0.00
2013-4-1,75.0,63.7,57.0,56.7,51.5,47.5,83,65,50,30.05,29.58,23,6,23,0.00
2013-4-2,71.0,58.6,48.0,59.7,51.5,45.8,94,79,48,30.04,29.72,12,2,12,0.00
2013-4-3,74.0,63.4,50.0,59.7,54.0,48.1,94,73,51,29.85,29.50,18,5,18,0.04
2013-4-4,61.0,50.5,41.0,50.2,46.1,39.9,100,86,59,30.16,29.85,12,2,12,0.00
2013-4-5,64.0,48.2,38.0,52.4,44.6,35.9,97,88,62,30.32,30.11,17,3,17,0.15
2013-4-6,58.0,48.7,41.0,49.9,44.5,39.7,99,87,63,30.40,30.32,7,1,7,0.00
2013-4-7,56.0,47.7,39.0,47.1,42.8,37.7,99,84,57,30.40,30.25,7,1,7,0.07
2013-4-8,68.0,51.5,39.0,52.6,45.2,37.7,100,81,49,30.24,30.06,10,1,10,0.11
2013-4-9,57.0,49.4,46.0,51.6,46.7,44.1,97,91,72,30.37,30.12,16,2,16,0.07
2013-4-10,58.0,46.8,34.0,48.3,41.9,32.5,99,84,61,30.37,30.15,14,2,16,0.00
2013-4-11,76.0,53.9,36.0,53.1,43.8,34.7,100,73,36,30.14,29.89,22,4,22,0.00
2013-4-12,64.0,57.1,45.0,53.4,48.9,41.1,90,75,58,30.33,29.95,21,4,21,0.00
2013-4-13,63.0,50.3,37.0,56.7,46.8,35.4,99,88,73,30.33,30.19,13,2,13,0.00
2013-4-14,65.0,54.1,45.0,57.1,51.2,43.7,100,91,72,30.20,29.97,12,2,12,0.00
2013-4-15,70.0,53.9,43.0,59.8,49.9,42.2,100,88,65,29.98,29.86,6,1,6,0.00
2013-4-16,66.0,52.9,42.0,58.2,50.2,40.9,100,91,71,29.92,29.83,13,2,13,0.16
2013-4-17,56.0,53.6,52.0,55.4,53.2,51.7,99,98,97,29.86,29.65,9,2,9,0.30
2013-4-18,57.0,53.7,50.0,54.0,51.8,47.8,100,93,83,29.95,29.73,7,1,7,0.00
2013-4-19,56.0,51.9,48.0,52.2,49.7,46.1,97,92,82,30.09,29.94,5,1,5,0.19
2013-4-20,52.0,50.7,50.0,51.2,50.1,48.6,100,98,94,30.10,30.04,21,6,21,0.96
2013-4-21,57.0,53.5,49.0,57.0,53.1,48.7,100,99,93,30.03,29.72,20,4,20,0.35
2013-4-22,61.0,52.0,45.0,56.1,50.9,44.7,100,96,82,29.72,29.56,7,1,7,0.01
2013-4-23,65.0,54.0,47.0,59.0,51.9,45.6,100,93,77,29.64,29.55,9,1,9,0.00
2013-4-24,67.0,51.0,41.0,56.1,48.0,40.5,100,91,59,29.58,29.52,12,1,12,0.00
2013-4-25,69.0,55.1,46.0,56.4,50.1,44.6,100,86,47,29.64,29.53,7,1,7,0.00
2013-4-26,62.0,52.4,43.0,54.0,46.5,41.7,100,82,49,29.74,29.47,17,2,17,0.00
2013-4-27,68.0,56.1,45.0,53.4,47.2,41.3,96,74,50,29.77,29.48,31,5,31,0.00
2013-4-28,77.0,58.0,42.0,57.4,47.5,41.5,100,73,38,29.87,29.74,32,5,32,0.00
2013-4-29,76.0,65.2,51.0,61.7,52.9,45.2,93,66,40,29.93,29.71,22,3,32,0.00
2013-4-30,54.0,49.5,44.0,54.0,48.8,42.9,100,98,93,30.28,29.95,14,1,22,0.36
2013-5-1,57.0,44.5,32.0,49.6,41.5,31.5,100,90,67,30.26,30.07,17,3,17,0.00
2013-5-2,55.0,45.6,36.0,52.7,44.1,34.7,99,95,89,30.05,29.80,10,1,10,0.11
2013-5-3,55.0,49.4,46.0,51.2,47.5,45.5,99,93,81,30.17,30.00,12,3,12,0.03
2013-5-4,68.0,55.0,40.0,58.6,49.5,38.7,100,83,65,30.01,29.45,8,1,18,0.00
2013-5-5,66.0,54.8,45.0,56.3,50.8,43.7,98,87,69,29.42,29.24,6,1,12,0.00
2013-5-6,52.0,46.4,44.0,51.2,45.8,42.7,99,98,95,29.98,29.37,10,4,25,0.58
2013-5-7,55.0,45.8,40.0,45.2,42.0,38.1,98,87,62,30.28,30.00,2,0,9,0.00
2013-5-8,57.0,42.3,31.0,50.3,39.7,30.2,100,91,70,30.34,30.27,2,0,10,0.00
2013-5-9,57.0,48.6,34.0,51.2,43.4,33.7,100,84,50,30.26,29.60,28,3,28,0.00
2013-5-10,54.0,47.7,42.0,48.6,41.9,35.9,93,81,65,30.27,29.66,20,4,20,0.00
2013-5-11,58.0,48.9,42.0,45.2,40.1,33.3,91,72,57,30.44,30.29,10,2,10,0.00
2013-5-12,71.0,51.7,40.0,59.0,47.9,38.7,100,88,64,30.45,30.33,12,1,12,0.00
2013-5-13,54.0,50.0,45.0,51.6,48.6,43.4,99,95,90,30.40,30.21,12,2,12,0.00
2013-5-14,55.0,50.6,43.0,52.4,49.1,42.2,99,95,91,30.20,29.95,7,1,7,0.00
2013-5-15,60.0,47.8,38.0,54.2,45.8,37.5,99,93,79,30.11,29.99,13,1,13,0.00
2013-5-16,57.0,49.6,42.0,53.2,48.3,41.2,100,96,86,30.09,29.91,12,2,12,0.00
2013-5-17,59.0,52.6,43.0,55.2,50.4,42.2,99,93,73,29.90,29.72,14,2,14,0.24
2013-5-18,58.0,53.3,50.0,53.8,51.7,49.7,100,94,84,29.71,29.53,18,5,18,0.09
2013-5-19,53.0,51.8,51.0,53.0,51.5,50.5,100,99,98,29.70,29.52,10,1,10,0.62
2013-5-20,56.0,49.6,41.0,53.2,48.7,40.5,100,97,87,29.79,29.68,7,1,7,0.00
2013-5-21,56.0,52.0,49.0,56.0,51.6,48.2,100,99,96,29.83,29.69,14,2,14,0.20
2013-5-22,57.0,50.8,46.0,54.3,49.8,45.7,100,97,86,29.68,29.43,5,1,5,0.05
2013-5-23,53.0,48.8,44.0,50.9,45.8,41.8,96,90,72,29.90,29.44,16,4,16,0.02
2013-5-24,52.0,44.7,37.0,43.7,40.2,34.1,100,85,61,30.09,29.92,7,1,7,0.00
2013-5-25,63.0,44.2,31.0,51.2,38.1,30.0,100,82,47,29.98,29.58,13,1,13,0.00
2013-5-26,68.0,56.5,47.0,47.2,38.4,29.6,71,52,32,29.57,29.18,34,10,35,0.00
2013-5-27,53.0,44.5,37.0,41.8,38.1,31.8,96,79,46,29.52,29.30,20,2,20,0.23
2013-5-28,46.0,39.2,33.0,37.1,30.8,26.5,96,73,48,30.02,29.54,24,6,24,0.02
2013-5-29,57.0,44.1,34.0,39.5,32.2,26.7,93,64,43,30.32,30.06,16,3,16,0.00
2013-5-30,55.0,38.7,29.0,44.2,34.4,27.2,99,86,57,30.41,30.32,5,0,5,0.00
2013-5-31,61.0,41.7,29.0,53.0,38.4,28.0,100,89,64,30.32,30.04,5,0,5,0.00
2013-6-1,63.0,49.3,36.0,51.5,44.3,35.0,100,84,65,30.16,29.78,15,3,15,0.00
2013-6-2,66.0,62.3,59.0,49.8,46.4,42.1,70,56,47,29.76,29.49,30,11,30,0.00
2013-6-3,62.0,50.1,46.0,49.3,46.5,43.7,99,89,55,29.64,29.48,20,4,20,0.38
2013-6-4,47.0,44.3,40.0,47.0,43.7,39.0,100,98,95,29.90,29.42,20,4,20,0.35
2013-6-5,50.0,40.7,34.0,42.0,36.6,33.0,97,86,64,30.19,29.90,10,1,10,0.00
2013-6-6,53.0,46.4,39.0,47.7,43.0,37.4,97,88,76,30.33,30.20,12,2,12,0.00
2013-6-7,52.0,40.4,30.0,44.0,37.5,29.0,100,90,72,30.32,30.15,10,1,10,0.00
2013-6-8,62.0,44.6,31.0,51.2,38.4,30.5,100,82,51,30.15,29.87,15,2,15,0.00
2013-6-9,57.0,49.5,44.0,51.2,46.9,42.4,99,91,78,30.20,29.92,13,2,13,0.00
2013-6-10,52.0,46.8,40.0,49.7,46.0,38.7,100,97,90,30.24,30.14,12,2,12,0.00
2013-6-11,53.0,44.0,38.0,51.0,43.0,37.2,100,97,86,30.13,30.06,10,2,10,0.00
2013-6-12,53.0,39.7,32.0,46.6,37.9,31.5,100,93,74,30.06,29.97,6,0,6,0.00
2013-6-13,53.0,45.2,37.0,48.5,43.1,36.0,100,93,80,30.06,29.90,9,2,9,0.00
2013-6-14,52.0,46.8,42.0,48.9,45.3,40.1,100,95,86,30.16,30.07,12,2,12,0.00
2013-6-15,45.0,40.5,33.0,44.5,39.9,32.2,100,98,94,30.11,29.97,7,1,7,0.18
2013-6-16,47.0,45.7,44.0,47.0,45.6,43.7,100,100,99,29.97,29.65,6,2,6,1.68
2013-6-17,52.0,49.3,46.0,52.0,49.3,46.0,100,100,100,29.63,29.41,26,6,26,2.27
2013-6-18,53.0,46.0,39.0,49.5,44.9,38.7,100,96,84,29.51,29.34,16,2,16,0.00
2013-6-19,47.0,45.3,38.0,47.0,45.1,37.5,100,99,98,29.35,29.11,12,2,12,0.53
2013-6-20,43.0,38.7,34.0,43.0,37.9,33.5,100,97,87,29.49,29.09,30,9,30,0.73
2013-6-21,40.0,37.5,35.0,39.2,35.9,31.7,98,94,78,29.85,29.51,23,12,23,0.33
2013-6-22,38.0,37.3,37.0,37.5,36.8,36.2,98,98,97,30.07,29.86,18,9,18,0.37
2013-6-23,50.0,38.4,29.0,43.4,35.2,28.3,100,89,71,30.07,29.96,9,1,9,0.00
2013-6-24,52.0,37.1,27.0,44.7,34.5,26.5,100,91,70,30.11,29.99,6,0,6,0.00
2013-6-25,53.0,40.7,31.0,42.3,34.7,29.2,97,80,59,30.14,30.10,12,2,12,0.00
2013-6-26,52.0,40.6,29.0,46.0,36.8,27.0,98,86,72,30.23,30.11,9,1,9,0.00
2013-6-27,50.0,42.7,35.0,42.5,38.2,32.6,95,85,70,30.25,30.16,12,2,12,0.02
2013-6-28,51.0,43.0,36.0,42.7,38.8,33.9,96,86,67,30.24,30.19,12,2,12,0.02
2013-6-29,46.0,34.6,26.0,41.7,32.6,25.0,100,93,77,30.20,30.09,9,0,9,0.00
2013-6-30,58.0,37.6,28.0,50.2,35.2,26.5,100,92,71,30.09,30.00,5,0,5,0.00
2013-7-1,61.0,43.0,28.0,47.2,35.7,27.3,100,79,44,30.04,29.93,17,2,17,0.00
2013-7-2,67.0,58.1,47.0,46.3,42.1,37.6,74,56,44,29.96,29.85,26,6,26,0.00
2013-7-3,66.0,57.1,46.0,47.1,43.2,38.2,93,62,45,29.94,29.66,32,7,32,0.00
2013-7-4,52.0,46.0,35.0,47.3,42.9,33.4,99,89,73,30.09,29.88,12,2,12,0.00
2013-7-5,66.0,53.9,37.0,45.4,39.4,34.3,98,60,41,29.88,29.56,23,6,23,0.00
2013-7-6,62.0,55.1,47.0,48.9,42.2,35.8,95,64,42,29.62,29.38,44,13,44,0.38
2013-7-7,59.0,53.3,45.0,44.9,38.2,31.1,76,57,39,29.71,29.50,38,12,38,0.00
2013-7-8,52.0,39.8,30.0,41.8,34.6,27.4,94,82,67,30.00,29.73,9,1,9,0.00
2013-7-9,47.0,36.2,26.0,42.4,34.1,24.8,99,92,71,30.12,29.88,16,2,16,0.16
2013-7-10,47.0,41.0,37.0,42.1,38.6,34.9,97,91,81,30.58,30.15,13,3,13,0.02
2013-7-11,50.0,39.4,29.0,40.2,34.5,27.0,97,83,60,30.59,30.51,12,1,12,0.00
2013-7-12,47.0,36.6,28.0,39.8,33.1,26.5,97,87,69,30.52,30.28,6,0,6,0.01
2013-7-13,52.0,43.5,37.0,49.6,42.3,36.0,100,96,83,30.26,29.80,10,2,10,0.28
2013-7-14,42.0,38.1,34.0,42.0,37.2,33.2,100,96,91,30.06,29.73,20,6,20,0.56
2013-7-15,46.0,42.2,37.0,44.9,40.5,34.9,99,94,82,30.28,30.02,21,4,21,0.22
2013-7-16,49.0,37.7,32.0,42.6,36.1,30.5,99,94,73,30.33,30.24,12,1,12,0.00
2013-7-17,59.0,42.0,31.0,48.9,38.4,30.5,100,89,59,30.30,30.19,5,0,5,0.00
2013-7-18,57.0,47.2,37.0,49.9,43.8,36.2,100,89,68,30.27,30.14,18,1,18,0.00
2013-7-19,53.0,45.7,37.0,50.2,44.4,36.5,100,95,87,30.33,30.24,9,1,9,0.00
2013-7-20,49.0,46.5,43.0,47.2,45.5,42.5,99,96,91,30.32,30.13,6,1,6,0.00
2013-7-21,62.0,43.6,32.0,52.5,40.5,31.5,100,90,61,30.14,30.06,5,0,5,0.00
2013-7-22,57.0,46.0,34.0,51.6,42.2,33.2,100,88,65,30.12,29.94,10,1,10,0.00
2013-7-23,56.0,52.6,46.0,51.4,48.6,44.9,98,87,76,29.96,29.76,12,1,12,0.09
2013-7-24,59.0,45.2,36.0,49.0,41.9,35.5,100,89,63,29.75,29.52,9,1,9,0.00
2013-7-25,58.0,42.4,32.0,48.4,37.9,31.2,100,86,57,29.71,29.52,6,1,6,0.00
2013-7-26,61.0,42.6,30.0,44.7,36.4,28.7,99,81,47,30.07,29.73,6,0,6,0.00
2013-7-27,63.0,45.1,35.0,50.6,40.5,33.7,98,86,52,30.25,30.08,6,0,6,0.00
2013-7-28,60.0,43.5,33.0,48.7,38.9,32.5,100,86,52,30.36,30.24,6,0,6,0.00
2013-7-29,58.0,41.2,30.0,44.9,36.5,29.0,99,85,55,30.47,30.36,7,1,7,0.00
2013-7-30,54.0,39.8,30.0,48.0,37.8,29.3,100,93,71,30.40,30.29,6,0,6,0.00
2013-7-31,49.0,38.9,31.0,45.3,37.2,30.5,100,94,79,30.33,30.20,4,0,4,0.00
2013-8-1,55.0,43.0,35.0,47.0,38.1,30.1,97,83,65,30.39,30.31,7,1,7,0.00
2013-8-2,50.0,45.9,43.0,47.5,44.3,41.9,98,94,87,30.37,30.12,7,1,7,0.00
2013-8-3,53.0,48.0,45.0,51.5,47.2,44.2,100,97,92,30.11,29.85,20,4,20,0.28
2013-8-4,56.0,50.9,46.0,51.9,47.5,43.0,94,88,80,29.86,29.79,16,4,16,0.00
2013-8-5,58.0,50.1,45.0,53.8,48.6,44.2,100,95,81,29.87,29.70,12,2,12,0.01
2013-8-6,60.0,51.6,37.0,49.0,43.2,35.4,95,74,54,29.86,29.70,15,2,15,0.00
2013-8-7,65.0,47.6,32.0,49.8,40.7,31.2,100,79,52,29.86,29.62,21,4,21,0.00
2013-8-8,61.0,48.4,38.0,50.6,43.0,35.9,94,82,63,29.93,29.74,7,1,7,0.00
2013-8-9,54.0,44.0,36.0,49.0,41.5,35.0,98,91,79,30.05,29.94,10,1,10,0.00
2013-8-10,48.0,44.3,38.0,47.2,43.6,37.2,100,98,93,29.97,29.58,12,2,12,0.00
2013-8-11,54.0,49.5,46.0,52.3,48.0,43.8,98,95,89,29.56,29.29,16,4,16,0.07
2013-8-12,53.0,49.1,46.0,50.5,47.7,44.6,100,95,84,29.61,29.35,12,1,12,0.20
2013-8-13,55.0,47.6,39.0,50.6,44.8,38.0,100,91,74,29.60,29.10,18,4,18,0.00
2013-8-14,63.0,50.3,36.0,45.7,37.7,30.9,100,66,33,29.57,29.10,17,2,17,0.00
2013-8-15,69.0,52.5,39.0,46.7,41.1,35.2,91,67,36,29.73,29.58,15,2,15,0.00
2013-8-16,62.0,53.5,47.0,50.6,46.4,41.1,94,78,59,29.86,29.69,17,2,17,0.00
2013-8-17,52.0,49.9,48.0,51.7,49.3,47.2,100,98,94,29.95,29.83,20,5,20,0.56
2013-8-18,51.0,50.7,50.0,51.0,50.6,49.5,100,99,97,30.03,29.93,17,6,17,0.36
2013-8-19,54.0,50.6,46.0,52.0,48.9,43.8,100,94,88,30.08,30.00,22,8,22,0.02
2013-8-20,57.0,48.4,40.0,50.6,45.1,39.0,99,89,73,30.02,29.85,18,5,18,0.00
2013-8-21,61.0,50.8,44.0,50.8,45.6,40.1,93,83,65,29.86,29.67,16,5,16,0.00
2013-8-22,68.0,55.0,47.0,52.0,45.4,39.5,90,72,38,29.67,29.58,18,4,18,0.00
2013-8-23,68.0,52.5,40.0,45.4,41.1,37.5,93,68,37,29.79,29.65,16,2,16,0.00
2013-8-24,64.0,44.5,30.0,46.0,38.3,29.0,100,81,38,29.79,29.60,12,1,12,0.00
2013-8-25,61.0,46.7,37.0,49.0,41.1,35.2,98,82,53,29.70,29.59,7,1,7,0.00
2013-8-26,64.0,49.3,39.0,52.7,44.7,37.4,100,85,61,29.86,29.59,15,2,15,0.01
2013-8-27,61.0,46.7,34.0,45.9,40.3,32.7,100,81,45,29.85,29.77,10,1,10,0.00
2013-8-28,57.0,45.0,31.0,50.3,39.3,30.2,100,82,56,29.82,29.52,18,3,18,0.09
2013-8-29,57.0,45.5,37.0,40.4,36.4,33.8,97,73,44,30.15,29.82,17,4,17,0.13
2013-8-30,54.0,45.9,36.0,45.0,41.5,34.4,96,85,63,30.41,30.17,10,2,10,0.02
2013-8-31,54.0,41.3,28.0,45.2,37.3,27.3,100,87,65,30.45,30.36,16,2,16,0.00
2013-9-1,55.0,41.3,28.0,46.9,37.6,27.0,99,87,71,30.55,30.46,15,2,15,0.00
2013-9-2,55.0,42.2,29.0,48.6,39.4,28.3,100,90,73,30.54,30.35,13,2,13,0.00
2013-9-3,66.0,45.7,30.0,48.1,38.5,29.3,100,79,43,30.33,30.02,12,2,12,0.00
2013-9-4,47.0,42.0,37.0,45.4,39.6,34.3,97,91,80,30.19,29.72,30,6,30,0.27
2013-9-5,54.0,44.9,37.0,43.7,38.1,34.3,95,78,52,30.26,30.15,20,4,20,0.04
2013-9-6,62.0,47.7,32.0,51.7,41.2,29.8,97,79,59,30.14,29.85,6,1,6,0.00
2013-9-7,70.0,51.7,35.0,52.7,41.5,34.2,99,72,38,29.87,29.62,30,6,30,0.00
2013-9-8,56.0,50.8,41.0,49.0,42.7,34.9,95,74,53,29.76,29.57,31,4,31,0.00
2013-9-9,55.0,47.9,38.0,46.3,39.5,30.3,91,73,54,29.73,29.53,20,4,21,0.00
2013-9-10,71.0,58.4,45.0,47.2,39.2,30.5,68,50,36,29.72,29.11,60,13,60,0.00
2013-9-11,72.0,61.2,56.0,57.7,51.4,39.5,96,71,46,29.40,29.18,45,10,45,0.17
2013-9-12,64.0,54.9,42.0,44.2,38.1,29.4,89,56,28,29.69,29.29,34,13,35,0.00
2013-9-13,66.0,51.4,37.0,37.4,32.9,27.5,85,52,27,29.67,29.53,20,4,20,0.00
2013-9-14,58.0,48.3,41.0,45.9,40.2,28.9,96,74,51,29.63,29.47,14,2,14,0.00
2013-9-15,54.0,45.7,39.0,42.0,35.1,31.5,89,68,46,30.00,29.68,20,4,20,0.00
2013-9-16,61.0,44.4,28.0,45.3,37.2,26.5,98,78,42,30.00,29.80,14,2,14,0.00
2013-9-17,55.0,46.1,37.0,41.5,38.3,34.3,98,76,49,30.29,29.99,17,4,17,0.01
2013-9-18,58.0,43.7,28.0,45.7,37.8,26.8,99,81,59,30.26,30.11,12,2,12,0.00
2013-9-19,61.0,46.6,35.0,50.6,43.5,34.2,100,90,65,30.12,29.75,10,2,10,0.00
2013-9-20,64.0,50.9,44.0,54.9,47.4,42.7,97,88,69,29.72,29.61,12,1,12,0.00
2013-9-21,62.0,57.6,52.0,55.5,50.1,45.6,96,77,58,29.68,29.61,15,3,15,0.07
2013-9-22,58.0,50.9,46.0,55.1,49.7,44.6,100,96,86,29.69,29.56,10,1,10,0.15
2013-9-23,64.0,52.4,45.0,57.4,50.0,44.2,100,92,75,30.09,29.65,12,2,12,0.00
2013-9-24,53.0,50.3,47.0,51.5,48.4,44.6,99,93,88,30.22,30.10,13,3,13,0.04
2013-9-25,50.0,47.4,46.0,49.2,46.7,45.2,99,97,94,30.10,29.67,13,2,13,0.21
2013-9-26,68.0,54.4,44.0,57.0,48.8,42.9,100,83,54,29.74,29.50,20,3,20,0.00
2013-9-27,61.0,51.2,40.0,55.5,47.7,38.7,100,88,73,29.74,29.27,21,4,21,0.01
2013-9-28,71.0,53.0,43.0,55.9,47.3,40.3,96,83,47,29.49,29.16,17,3,17,0.06
2013-9-29,57.0,49.5,45.0,48.6,46.2,43.9,97,89,71,29.61,29.51,12,2,12,0.11
2013-9-30,64.0,51.3,45.0,52.7,47.8,43.7,97,88,61,29.88,29.61,12,1,12,0.00
2013-10-1,66.0,50.3,35.0,56.3,45.9,34.2,100,86,66,29.92,29.82,12,2,12,0.00
2013-10-2,68.0,56.1,43.0,52.6,46.0,41.2,100,72,44,29.95,29.70,21,5,21,0.00
2013-10-3,69.0,56.0,50.0,60.5,51.7,46.6,96,86,71,29.98,29.70,18,2,18,0.04
2013-10-4,71.0,56.3,47.0,61.3,52.0,45.9,100,86,58,29.94,29.73,13,1,13,0.00
2013-10-5,64.0,55.0,49.0,57.7,52.4,47.6,99,91,75,29.94,29.73,12,2,12,0.00
2013-10-6,78.0,60.6,49.0,60.5,51.7,43.3,100,76,42,29.73,29.45,16,2,16,0.00
2013-10-7,64.0,55.6,46.0,51.2,44.7,36.5,92,68,43,29.64,29.38,26,7,26,0.06
2013-10-8,46.0,42.4,37.0,44.9,41.7,36.2,99,97,92,29.65,29.58,13,2,13,1.34
2013-10-9,47.0,41.8,37.0,45.0,40.2,35.7,100,94,80,29.72,29.59,17,3,17,0.22
2013-10-10,61.0,45.2,28.0,47.9,39.1,27.0,100,81,54,29.70,29.21,18,3,18,0.00
2013-10-11,54.0,49.4,43.0,49.3,45.6,40.8,95,87,76,29.36,29.12,14,2,16,0.00
2013-10-12,62.0,48.7,43.0,49.6,44.6,41.1,97,87,58,29.57,29.14,17,2,17,0.28
2013-10-13,72.0,54.1,35.0,55.8,45.5,34.2,100,76,44,29.67,29.49,32,8,32,0.00
2013-10-14,74.0,60.6,49.0,60.0,50.6,41.0,93,70,46,29.49,28.88,34,8,34,0.13
2013-10-15,62.0,50.5,42.0,45.4,39.5,30.7,94,69,35,29.65,29.28,22,3,22,0.06
2013-10-16,61.0,47.8,34.0,50.9,42.4,33.0,99,83,61,29.76,29.65,16,3,16,0.02
2013-10-17,77.0,60.0,42.0,56.8,47.2,38.5,95,65,39,29.89,29.76,21,5,21,0.00
2013-10-18,78.0,64.1,51.0,58.9,47.8,39.1,85,56,41,30.14,29.65,39,11,39,0.00
2013-10-19,66.0,55.5,46.0,54.2,48.3,43.0,95,78,55,30.18,30.05,16,3,16,0.00
2013-10-20,75.0,56.5,42.0,58.1,47.9,40.7,98,76,40,30.15,29.96,14,1,14,0.00
2013-10-21,76.0,58.5,46.0,54.9,46.7,39.5,96,68,42,29.96,29.66,44,8,44,0.00
2013-10-22,63.0,55.7,49.0,52.5,49.0,46.1,94,79,56,29.93,29.58,15,2,15,0.01
2013-10-23,58.0,50.1,39.0,50.5,46.5,37.7,98,88,72,30.07,29.83,22,5,22,0.01
2013-10-24,80.0,66.0,51.0,60.6,51.6,38.3,95,63,35,29.83,29.28,41,13,41,0.01
2013-10-25,70.0,62.3,50.0,63.0,47.0,33.2,97,60,34,29.62,29.23,33,10,33,0.20
2013-10-26,69.0,56.7,43.0,50.3,44.4,37.7,87,65,45,29.65,29.46,46,17,46,0.01
2013-10-27,64.0,54.7,45.0,45.8,39.5,33.1,79,58,36,29.66,29.46,29,11,29,0.00
2013-10-28,57.0,48.5,43.0,45.0,40.1,35.8,92,73,57,29.99,29.65,20,5,20,0.00
2013-10-29,62.0,49.3,33.0,52.5,42.8,31.2,99,80,55,29.99,29.82,17,3,17,0.00
2013-10-30,68.0,53.1,39.0,53.1,46.3,38.0,100,80,46,29.88,29.66,18,2,18,0.11
2013-10-31,71.0,57.9,49.0,59.9,52.8,47.9,100,84,54,29.66,29.40,14,2,14,0.02
2013-11-1,56.0,50.2,43.0,48.9,45.7,41.7,97,85,66,29.80,29.60,16,2,16,0.41
2013-11-2,61.0,49.1,36.0,50.8,44.0,35.2,100,84,59,29.84,29.73,15,2,15,0.00
2013-11-3,61.0,53.0,44.0,52.4,49.0,42.2,97,87,67,30.01,29.84,22,5,22,0.00
2013-11-4,76.0,58.8,42.0,58.8,49.4,39.9,100,75,36,29.85,29.74,18,2,18,0.00
2013-11-5,77.0,60.4,45.0,58.0,50.1,42.8,99,72,39,30.05,29.80,16,2,16,0.00
2013-11-6,59.0,55.0,48.0,53.5,51.0,45.2,94,87,79,30.15,30.05,14,2,14,0.00
2013-11-7,64.0,54.8,43.0,56.3,51.1,41.7,100,88,73,30.09,29.80,16,4,16,0.00
2013-11-8,67.0,57.3,52.0,61.0,54.4,49.2,100,90,78,29.96,29.79,16,4,16,0.00
2013-11-9,61.0,54.8,51.0,54.4,51.7,48.8,95,90,76,30.00,29.85,15,3,15,0.00
2013-11-10,86.0,64.5,46.0,63.9,53.4,44.9,100,72,34,29.94,29.66,21,4,21,0.00
2013-11-11,60.0,54.6,50.0,51.9,48.6,45.3,94,80,67,30.42,29.94,15,2,15,0.00
2013-11-12,60.0,52.7,46.0,53.1,48.4,42.6,96,86,71,30.55,30.42,12,1,12,0.00
2013-11-13,60.0,50.1,37.0,50.7,44.8,35.4,100,83,68,30.53,30.33,18,4,18,0.00
2013-11-14,61.0,51.3,37.0,51.9,46.0,35.4,99,83,66,30.36,30.14,20,4,20,0.00
2013-11-15,64.0,53.5,41.0,56.3,50.2,39.7,99,89,76,30.15,29.83,14,2,14,0.00
2013-11-16,83.0,65.5,51.0,58.2,53.4,47.2,98,70,33,30.00,29.73,23,7,23,0.00
2013-11-17,64.0,57.3,52.0,56.7,53.3,49.7,96,87,70,30.07,30.00,15,3,15,0.00
2013-11-18,67.0,58.9,55.0,59.7,56.1,53.6,99,91,75,30.22,30.06,16,2,16,0.09
2013-11-19,64.0,58.7,56.0,58.1,56.3,54.0,98,92,80,30.26,30.14,23,6,23,0.00
2013-11-20,68.0,60.8,54.0,60.9,56.6,52.3,95,86,75,30.13,29.86,16,4,16,0.00
2013-11-21,78.0,59.4,48.0,63.3,54.7,46.9,100,86,48,30.05,29.79,16,2,16,0.14
2013-11-22,59.0,55.4,53.0,55.4,53.8,52.5,100,94,86,30.16,30.05,15,4,15,0.14
2013-11-23,66.0,59.6,55.0,61.0,56.7,53.6,97,90,77,30.15,29.97,13,2,13,0.00
2013-11-24,71.0,62.9,56.0,64.2,57.4,44.7,98,83,51,29.97,29.54,15,2,15,0.00
2013-11-25,64.0,58.0,50.0,58.4,51.9,43.4,98,82,47,29.75,29.52,15,2,15,0.69
2013-11-26,54.0,51.0,49.0,53.2,50.3,48.7,100,98,92,30.00,29.74,5,1,5,0.46
2013-11-27,59.0,53.5,49.0,56.0,52.1,48.5,100,95,84,30.07,29.95,17,3,17,0.30
2013-11-28,60.0,56.1,50.0,56.3,53.7,48.1,100,92,82,29.95,29.53,14,2,14,0.15
2013-11-29,75.0,59.6,42.0,64.0,50.6,39.9,100,75,48,29.53,29.19,35,7,35,0.00
2013-11-30,73.0,63.3,50.0,55.4,47.5,36.5,85,59,31,29.64,29.15,33,7,33,0.00
2013-12-1,71.0,54.7,40.0,54.0,45.3,38.1,98,73,37,30.13,29.61,22,4,22,0.00
2013-12-2,69.0,56.4,42.0,58.0,50.0,40.1,98,80,59,30.21,30.10,12,2,12,0.00
2013-12-3,69.0,60.1,50.0,61.9,56.0,48.3,98,87,73,30.21,29.97,14,2,14,0.00
2013-12-4,68.0,59.4,55.0,61.2,56.5,53.6,97,90,75,30.03,29.81,14,2,14,0.00
2013-12-5,74.0,61.3,54.0,65.2,58.5,53.2,99,91,69,29.82,29.65,15,2,15,0.00
2013-12-6,88.0,68.7,58.0,70.6,60.6,50.5,100,79,41,29.65,29.43,22,3,22,0.00
2013-12-7,81.0,69.8,63.0,58.0,50.4,46.3,67,51,34,29.44,29.35,22,9,22,0.00
2013-12-8,77.0,63.2,56.0,58.8,53.6,48.4,98,73,47,29.64,29.39,17,3,17,0.43
2013-12-9,73.0,60.2,52.0,59.1,54.9,51.2,98,84,56,29.87,29.64,15,3,15,0.04
2013-12-10,66.0,60.6,57.0,60.7,57.4,55.0,98,90,78,29.91,29.81,14,2,14,0.19
2013-12-11,73.0,62.9,56.0,61.6,58.2,53.7,97,85,62,29.85,29.73,16,2,16,0.00
2013-12-12,74.0,63.8,53.0,65.2,57.3,51.6,99,81,52,29.79,29.58,20,3,20,0.00
2013-12-13,75.0,63.4,55.0,65.6,58.3,52.1,93,84,69,29.97,29.68,14,2,14,0.00
2013-12-14,68.0,60.0,50.0,61.6,56.7,48.9,100,89,75,29.98,29.88,16,2,16,0.00
2013-12-15,77.0,62.2,51.0,66.0,58.1,50.2,99,87,61,29.99,29.84,13,2,13,0.00
2013-12-16,72.0,62.9,56.0,62.6,58.6,54.7,98,87,59,29.84,29.72,14,2,14,0.00
2013-12-17,61.0,56.4,53.0,58.4,53.7,50.8,98,91,77,29.98,29.78,13,2,13,0.11
2013-12-18,69.0,58.1,46.0,58.4,51.9,44.6,100,81,59,29.96,29.65,17,3,17,0.00
2013-12-19,62.0,54.8,51.0,54.6,50.0,46.1,98,85,58,30.09,29.82,17,2,17,0.21
2013-12-20,69.0,57.4,40.0,61.6,52.3,38.4,100,84,69,30.09,29.71,16,3,16,0.00
2013-12-21,76.0,61.5,49.0,58.9,50.9,39.9,97,72,34,29.79,29.49,39,7,39,0.14
2013-12-22,68.0,54.3,46.0,52.2,47.4,43.1,98,79,48,30.02,29.79,18,3,18,0.02
2013-12-23,69.0,57.0,43.0,55.9,49.0,40.6,98,76,57,30.01,29.83,14,2,14,0.00
2013-12-24,82.0,64.8,54.0,64.4,56.0,48.0,96,76,50,29.85,29.30,23,5,23,0.02
2013-12-25,74.0,61.5,52.0,60.4,53.7,47.3,98,77,49,29.71,29.35,16,2,21,0.76
2013-12-26,66.0,58.6,54.0,61.4,56.5,53.7,100,93,78,29.96,29.71,16,3,16,0.09
2013-12-27,62.0,58.1,55.0,59.6,56.9,54.4,100,96,82,30.02,29.95,12,2,12,0.37
2013-12-28,65.0,59.3,55.0,65.0,59.1,54.7,100,99,94,29.98,29.84,12,1,12,0.76
2013-12-29,64.0,62.6,61.0,64.0,62.5,60.7,100,100,97,29.84,29.59,12,3,12,0.06
2013-12-30,74.0,64.2,56.0,67.3,59.2,44.1,99,85,54,29.59,29.28,20,5,20,0.28
2013-12-31,81.0,61.0,44.0,55.8,45.7,39.6,96,61,26,29.71,29.41,20,4,20,0.00
2014-1-1,79.0,59.7,46.0,59.5,47.4,40.2,92,66,39,29.72,29.53,28,6,28,0.00
2014-1-2,76.0,63.7,55.0,59.7,50.1,41.8,74,61,49,29.63,29.38,24,8,24,0.00